Home > Weather > Nadiad > Past weeks

Flag for India Past Weather in Nadiad, Gujarat, India — Yesterday and Last 2 Weeks

Now
88 °F

Scattered clouds.


Feels Like: 100 °F
Forecast: 79 / 88 °F
Wind: 5 mph from Southwest

Location: Ahmadabad Airport

Current Time: Aug 27, 2016 at 5:21:49 PM

Latest Report: Aug 27, 2016 at 5:00 PM


Visibility: 4 mi

Pressure: 29.59 "Hg

Humidity: 70%

Dew Point: 77 °F

Location of NadiadLocation

Past Weather in Nadiad — Graph

°F

Nadiad Temperature Yesterday

Maximum temperature yesterday: 88 °F (at 2:30 PM)
Minimum temperature yesterday: 79 °F (at 12:30 AM)
Average temperature yesterday: 82 °F

High & Low Weather Summary for the Past Weeks

 TemperatureHumidityPressure
High93 °F (Aug 17, 3:30 PM)100% (Aug 24, 8:30 AM)29.74 "Hg (Aug 24, 8:30 AM)
Low75 °F (Aug 24, 5:30 AM)49% (Aug 17, 4:00 PM)29.50 "Hg (Aug 17, 5:30 PM)
Average83 °F79%29.62 "Hg
* Reported Aug 12 3:30 PM — Aug 27 4:00 PM, Nadiad, Weather by CustomWeather, © 2016

Note: Actual official high and low records may vary slightly from our data, if they occured in-between our weather recording intervals... More about our weather records

Advertising

Nadiad Weather History for the Previous 24 Hours

Scroll right to see more
 ConditionsComfort  
Time TempWeatherWind HumidityBarometerVisibility
4:00 PM
Sat, Aug 27
90 °FScattered clouds.5 mph71%29.59 "Hg4 mi
3:30 PM91 °FScattered clouds.6 mph67%29.59 "Hg4 mi
3:00 PM90 °FScattered clouds.5 mph75%29.59 "Hg3 mi
2:30 PM90 °FScattered clouds.5 mph75%29.62 "Hg3 mi
2:00 PM91 °FScattered clouds.3 mph71%29.62 "Hg3 mi
1:30 PM90 °FScattered clouds.2 mph71%29.65 "Hg3 mi
1:00 PM90 °FScattered clouds.2 mph71%29.65 "Hg3 mi
12:30 PM88 °FScattered clouds.2 mph75%29.68 "Hg2 mi
12:00 PM88 °FScattered clouds.2 mph75%29.68 "Hg2 mi
11:30 AM88 °FPartly sunny.No wind79%29.71 "Hg2 mi
10:30 AM84 °FFog.No wind84%29.74 "Hg2 mi
10:00 AM84 °FFog.No wind89%29.74 "Hg2 mi
9:30 AM82 °FFog.No wind89%29.74 "Hg2 mi
8:30 AM82 °FFog.No wind89%29.71 "Hg2 mi
8:00 AM81 °FBroken clouds.No wind94%29.71 "Hg2 mi
7:00 AM81 °FBroken clouds.No wind94%29.68 "Hg2 mi
6:30 AM81 °FPartly cloudy.No wind94%29.68 "Hg2 mi
5:00 AM81 °FPartly cloudy.No wind94%29.65 "Hg2 mi
4:30 AM81 °FPartly cloudy.No wind94%29.65 "Hg2 mi
4:00 AM81 °FLight rain. Partly cloudy.3 mph94%29.65 "Hg2 mi
3:30 AM81 °FPartly cloudy.No wind94%29.65 "Hg2 mi
3:00 AM82 °FPartly cloudy.No wind89%29.65 "Hg2 mi
2:30 AM82 °FPartly cloudy.No wind89%29.68 "Hg2 mi
2:00 AM81 °FPartly cloudy.No wind94%29.68 "Hg2 mi
1:30 AM81 °FPartly cloudy.2 mph94%29.68 "Hg2 mi
1:00 AM81 °FPartly cloudy.3 mph94%29.68 "Hg2 mi
12:30 AM81 °FPartly cloudy.5 mph94%29.68 "Hg2 mi
12:00 AM81 °FPartly cloudy.3 mph94%29.68 "Hg2 mi
10:30 PM
Fri, Aug 26
82 °FPassing clouds.3 mph89%29.71 "Hg2 mi
10:00 PM82 °FPassing clouds.3 mph89%29.68 "Hg2 mi
9:30 PM82 °FPassing clouds.5 mph89%29.68 "Hg2 mi
9:00 PM82 °FPassing clouds.3 mph89%29.68 "Hg2 mi
8:30 PM84 °FPassing clouds.3 mph89%29.65 "Hg2 mi
8:00 PM84 °FFog.5 mph84%29.62 "Hg2 mi
7:30 PM84 °FFog.2 mph89%29.62 "Hg2 mi
7:00 PM84 °FFog.2 mph89%29.62 "Hg2 mi
6:30 PM84 °FFog.5 mph89%29.62 "Hg2 mi
6:00 PM84 °FFog.3 mph89%29.59 "Hg2 mi
Weather by CustomWeather, © 2016

See weather overviewHow to use our weather pages